Погода в Рудном

Россия / Приморский край     44°16′41″N   134°57′24″E
темп.,
°C
ветер,
м/с
пор.,
м/с
влажн.,
%
обл.,
%
осадки,
мм/ч
давл.,
гПа
погр.,
м
14 июня, пн
пн1401:00+14зсз1180100 0.0 100911
04:00+13сз1188100 0.0 100911
07:00+15в1184100 0.0 100986
10:00+21в22610 0.0 1009723
13:00+24вюв43485 0.0 10081189
16:00+18в357418 0.1 1008323
19:00+15в337428 0.1 1010482
22:00+10в239491 0.1 1012188
15 июня, вт
вт1501:00+9вюв128980 0.0 1013208
04:00+7вюв11989 0.0 101210
07:00+9вюв12850 0.0 1012177
10:00+16вюв34550 0.0 1011793
13:00+20вюв44470 0.0 10101093
16:00+20вюв43490 0.0 10101073
19:00+16вюв34630 0.0 1010525
22:00+9вюв11960 0.0 101311
16 июня, ср
ср1601:00+7ююз00970 0.0 101310
04:00+7вюв00960 0.0 101210
07:00+10ссв00890 0.0 101278
10:00+18в33540 0.0 1011717
13:00+22вюв44460 0.0 10101197
16:00+21вюв44480 0.0 10101045
19:00+19вюв33640 0.0 1010540
22:00+11ююв11960 0.0 101111
17 июня, чт
чт1701:00+10вюв11971 0.0 101110
04:00+8зюз00975 0.0 101010
07:00+11вюв01931 0.0 101074
10:00+20вюв35593 0.0 1008937
13:00+24юв5644100 0.0 10061494
16:00+23юв565095 0.0 10051368
19:00+18юв467073 0.0 1006705
22:00+13в1398100 0.0 1007158
18 июня, пт
пт1801:00+13в1399100 0.0 1005245
04:00+13всв1399100 0.1 1005273
07:00+13в2699100 0.0 1005387
10:00+14в2597100 0.1 1004516
13:00+14в2797100 0.1 1004556
16:00+13в2796100 0.3 1003517
19:00+13вюв2896100 0.2 1003590
22:00+12вюв1798100 0.3 1003651